Temperature
23 22 21 22 26 27 29 33 34 34 34 34 34 34 33 31 30 28 28 26 24 24 24 23 23 23 23 22 21 21 20 20 20 20 20 19 19 19 19 19 19 19 19 19 19 18 18 18 18
23 22 23 26 28 29 30 33 34 34 34 34 34 34 32 31 30 28 26 25 23 24 24 23 23 23 23 22 22 21 21 20 20 20 19 19 19 19 19 19 19 19 19 19 18 18 18 19 19
23 24 27 30 31 32 32 34 34 35 34 34 34 33 31 30 29 27 26 25 23 23 23 23 23 23 23 22 22 21 21 20 20 20 19 19 19 19 19 19 19 19 19 18 18 18 18 19 19
23 26 28 30 32 34 34 35 35 35 34 34 34 32 29 29 28 27 26 25 23 22 23 23 23 23 22 22 22 21 21 21 20 20 20 19 19 19 19 19 19 19 19 18 18 18 18 19 19
25 29 31 32 34 35 36 35 35 35 34 34 33 31 29 28 27 27 26 25 23 22 23 23 23 22 22 22 22 21 21 21 20 20 20 20 19 19 19 19 19 19 19 18 18 18 18 19 19
28 31 32 33 34 36 36 36 35 35 34 33 32 30 28 28 27 27 27 26 25 23 23 23 22 22 22 22 22 21 21 21 21 20 20 20 20 19 19 19 19 19 19 18 18 18 18 19 19
29 32 32 34 35 35 36 35 35 34 33 32 31 30 28 28 27 27 27 26 25 23 23 23 23 22 22 22 22 21 21 21 21 20 20 20 20 20 19 19 19 19 19 19 18 18 19 19 19
30 32 32 34 35 35 36 35 34 34 32 31 31 30 28 27 27 27 27 26 25 24 22 22 22 22 22 22 21 21 21 21 21 21 20 20 20 20 20 20 20 19 19 19 19 18 18 19 19
30 31 31 34 35 35 35 35 34 33 31 29 28 28 28 27 27 27 26 26 25 24 23 22 21 21 20 20 21 21 21 21 20 20 20 20 20 20 20 20 20 20 19 19 19 18 18 18 18
31 31 33 35 35 35 35 34 33 32 30 28 27 27 27 27 26 26 26 25 24 24 23 22 21 21 20 20 20 20 20 20 20 20 19 19 19 19 19 19 19 19 19 19 19 19 18 18 18
32 32 33 35 34 34 34 33 31 31 28 26 26 26 26 26 26 25 25 24 24 23 22 21 21 21 20 20 20 19 19 19 19 19 19 18 18 18 19 19 18 18 19 19 19 19 19 18 19
33 33 34 34 34 33 33 32 29 26 25 24 24 24 25 24 23 23 23 22 22 22 21 21 20 20 20 20 20 19 19 19 19 19 18 18 18 18 18 18 18 18 18 18 18 18 19 19 18
33 33 33 33 33 32 32 30 27 24 23 22 22 22 22 21 21 20 21 21 21 20 20 20 20 19 19 19 19 19 19 19 19 18 18 18 18 18 18 18 18 18 18 18 18 18 18 18 18
33 33 33 33 32 32 31 29 26 23 22 21 20 20 20 20 19 19 19 19 19 19 19 19 19 19 19 18 18 18 18 18 18 18 18 18 18 17 17 17 18 18 17 18 17 17 18 18 18
32 32 32 32 32 31 30 27 25 23 22 20 19 19 18 18 18 18 18 18 18 18 18 18 18 18 18 18 18 18 17 17 17 17 17 17 17 17 17 17 17 17 17 17 17 17 17 17 17
32 31 31 30 30 30 30 25 24 22 21 20 19 19 18 18 18 18 18 18 18 18 18 18 18 18 18 17 17 17 17 17 17 17 17 17 17 17 17 17 17 17 17 16 16 17 17 17 17
31 30 28 26 27 28 29 25 24 23 22 20 19 19 19 18 18 18 18 17 17 17 17 17 18 18 18 17 17 17 17 17 17 16 16 16 16 16 16 16 16 16 16 16 16 16 16 16 16
27 25 23 22 26 27 27 24 23 23 22 21 20 20 19 19 18 18 18 17 17 17 17 17 17 17 17 17 17 17 16 16 16 16 16 16 16 16 16 16 16 16 16 16 16 15 16 16 16
28 26 23 23 26 27 27 25 24 24 23 22 21 21 20 20 19 18 18 18 17 17 17 17 16 16 16 16 16 16 16 16 16 16 16 15 15 15 15 15 15 15 15 15 15 15 15 15 16
30 29 27 25 25 26 27 26 25 25 24 23 22 21 21 20 19 19 18 18 18 17 17 17 16 16 16 16 16 15 15 15 16 16 15 15 15 15 15 15 15 15 15 15 15 15 15 15 16
29 28 27 25 24 25 26 25 23 24 24 23 23 22 21 21 20 20 19 19 18 18 17 17 16 15 15 15 15 14 15 15 15 15 15 15 14 14 14 14 14 15 15 15 15 15 15 15 16
27 28 28 26 24 24 25 22 21 22 23 23 23 22 22 21 21 20 20 19 19 18 17 17 16 15 15 14 14 13 13 13 14 14 14 14 14 14 14 14 14 14 14 14 15 15 15 15 16
28 29 27 26 24 23 21 19 20 21 22 23 23 23 22 22 21 20 20 19 19 18 17 17 16 15 14 14 13 13 12 12 12 13 13 13 13 14 14 14 14 14 14 14 14 14 15 15 15
31 29 27 23 21 20 18 17 19 21 22 23 24 23 22 22 21 21 20 19 19 18 17 17 16 15 14 13 13 12 12 12 12 12 12 13 13 13 14 14 13 13 13 13 14 14 14 14 15
29 28 26 21 18 18 19 18 19 22 24 24 24 24 23 22 22 21 20 19 18 18 17 16 15 14 14 13 12 12 11 11 11 12 12 12 12 12 13 13 13 13 12 13 13 13 13 14 14
28 29 27 25 24 22 20 20 21 24 25 25 25 24 23 23 22 21 20 19 18 18 17 16 15 14 13 12 12 11 11 11 11 11 11 11 11 11 12 12 12 12 12 12 12 12 12 13 13
29 29 30 28 28 25 22 22 22 25 25 25 25 24 24 23 22 21 20 19 18 17 16 15 14 13 13 12 11 11 11 10 10 10 10 10 10 10 11 11 11 11 11 11 11 12 12 12 12
30 30 29 27 26 26 25 23 22 24 25 25 25 24 23 22 21 20 19 18 17 16 15 14 14 13 12 12 11 11 10 10 9 9 9 9 9 9 9 10 10 10 10 11 11 11 11 11 12
29 28 28 28 27 26 26 24 25 25 25 24 24 23 22 21 20 19 18 17 16 15 15 14 13 12 12 11 11 10 10 9 9 9 9 9 9 9 9 9 9 9 9 10 10 10 11 11 11
29 28 28 26 26 27 27 24 26 26 25 24 24 23 21 20 19 18 17 16 15 15 14 13 12 12 11 11 10 10 9 9 9 9 8 8 8 8 8 8 8 8 9 9 9 10 10 11 11
Wind_Speed
13 14 11 8 6 5 6 6 11 11 11 10 8 9 18 18 12 9 10 18 24 21 19 19 18 17 15 13 13 12 12 13 13 13 12 12 11 11 10 10 9 9 8 9 9 9 9 8 9
13 13 10 6 7 4 2 7 10 8 7 5 6 12 19 17 14 12 13 18 23 20 18 18 19 17 15 13 12 12 12 12 13 12 12 12 11 11 10 10 9 8 8 8 9 9 9 9 9
13 14 8 7 10 3 4 9 7 5 6 5 9 14 12 12 12 10 14 19 21 19 18 19 19 17 15 14 12 11 11 11 12 12 12 11 11 11 10 10 9 9 9 9 9 9 9 9 9
8 9 7 10 12 2 6 7 5 5 6 4 9 12 10 9 10 13 15 19 20 18 18 19 18 16 15 13 12 11 11 10 11 11 11 11 11 10 10 10 10 10 10 9 9 9 10 10 10
11 8 12 15 11 2 6 4 3 5 4 7 14 15 13 13 15 15 15 19 18 18 18 18 17 16 14 13 12 11 10 10 10 10 10 10 10 10 10 11 11 10 10 10 10 10 11 11 11
8 10 14 13 4 1 4 5 5 6 8 9 12 16 11 13 13 13 14 15 18 19 18 17 16 15 13 12 11 11 10 10 9 9 9 9 9 10 10 11 11 11 11 11 12 11 12 13 12
11 13 17 19 9 1 3 5 6 8 9 8 7 13 10 12 12 12 12 12 16 20 18 14 15 14 13 12 11 10 9 9 9 9 10 10 10 11 12 12 13 13 13 13 13 13 13 13 14
12 14 19 18 14 1 5 4 7 7 7 8 10 9 12 12 12 12 11 11 13 17 17 14 14 13 12 12 12 11 11 10 10 10 11 11 12 12 13 14 15 15 14 14 14 15 15 15 15
15 14 16 16 9 3 6 6 6 6 12 16 15 12 13 12 12 11 10 11 9 12 12 11 13 11 10 12 14 14 12 12 12 12 13 13 12 14 15 18 18 19 17 16 16 16 16 16 16
14 14 18 12 7 6 6 5 5 3 13 13 12 10 10 10 9 9 10 10 9 7 8 7 8 6 3 3 10 10 10 11 13 12 13 13 13 13 15 19 23 21 20 19 18 18 17 16 14
16 18 19 15 7 5 6 2 8 8 12 11 8 5 8 9 7 7 8 7 9 8 9 9 8 7 6 4 2 2 3 5 11 11 9 11 11 11 11 8 15 19 19 17 17 18 16 15 14
17 17 16 12 8 5 5 2 10 15 11 11 11 11 12 13 14 14 13 12 13 12 12 11 10 10 9 7 6 3 3 1 2 6 9 7 4 5 5 3 5 9 11 10 11 9 14 15 16
15 14 13 10 6 4 2 5 12 14 12 13 14 15 16 16 15 15 15 15 15 14 13 12 11 10 8 7 6 7 6 5 6 3 4 5 4 6 6 6 5 6 8 7 8 8 11 12 9
12 11 10 8 5 4 4 9 9 10 10 11 13 13 14 14 15 14 15 15 14 13 12 11 10 8 7 5 5 5 5 4 6 5 6 5 5 5 6 6 6 6 8 7 7 10 10 9 9
12 13 11 9 7 7 10 8 9 9 9 10 10 10 12 12 13 13 12 12 12 11 10 9 7 8 7 6 7 5 4 6 4 4 7 6 6 4 5 6 7 7 9 9 7 9 8 9 9
13 15 13 3 2 6 9 7 10 9 9 9 8 8 9 9 10 10 10 10 10 9 9 8 9 9 7 6 6 5 5 5 4 5 6 7 7 6 4 6 6 6 7 6 8 8 9 9 9
12 9 2 4 6 7 6 11 10 9 10 9 8 8 8 8 8 8 9 9 8 8 7 7 7 8 8 7 6 5 4 4 3 3 4 6 7 6 4 4 5 4 5 5 7 7 8 9 9
4 6 5 7 10 7 7 12 10 9 10 10 9 8 8 8 8 8 8 8 8 7 6 5 5 6 7 6 6 5 5 5 4 2 3 5 6 7 5 4 5 4 3 4 4 6 6 6 7
9 11 13 13 4 2 8 12 11 10 10 10 9 9 9 10 9 7 6 7 7 5 4 4 5 5 5 5 6 6 6 5 5 2 3 5 5 6 4 5 5 3 3 3 4 4 5 5 6
6 5 4 3 6 4 5 9 11 10 9 10 11 10 10 9 8 6 5 4 4 4 3 3 6 7 7 6 7 6 6 6 6 2 2 2 4 5 5 5 5 5 4 4 3 2 3 4 4
8 8 5 2 5 10 8 6 8 7 8 9 10 10 9 8 7 5 3 2 1 2 2 4 3 4 6 8 7 8 8 7 6 6 4 3 4 5 3 4 4 5 5 4 3 3 3 3 4
6 6 6 5 5 5 1 2 6 8 8 8 9 9 8 5 5 4 1 1 3 4 4 3 3 4 5 7 8 10 10 9 9 7 6 7 6 6 4 3 3 5 5 4 4 3 3 3 4
4 4 2 5 5 5 8 5 4 10 10 10 9 8 7 5 2 1 2 3 4 5 5 4 4 5 5 7 9 10 9 9 9 10 11 10 8 7 5 2 1 3 4 4 5 5 4 3 4
7 5 1 9 8 6 3 1 5 7 10 11 9 7 5 4 2 2 3 3 4 5 5 5 5 6 6 7 8 9 10 9 10 11 11 10 7 6 5 3 1 2 3 4 5 5 6 4 4
11 10 5 4 2 6 8 5 5 7 7 8 7 6 4 3 3 2 3 5 5 6 5 5 6 7 7 7 7 8 9 10 11 11 9 9 8 8 7 6 2 3 3 4 4 5 5 5 6
9 9 8 9 5 3 8 6 4 7 7 5 3 2 1 2 3 6 7 7 7 8 7 7 6 6 6 7 7 7 9 9 8 10 10 10 9 9 9 8 7 6 5 6 5 4 5 5 5
8 10 12 11 9 1 7 7 6 6 6 3 2 2 4 6 7 8 9 10 9 8 7 7 7 6 6 7 8 8 7 7 9 9 10 10 9 11 10 10 9 9 8 7 6 6 6 5 5
8 9 8 8 9 8 5 8 6 5 3 5 6 6 7 8 9 11 11 11 10 9 7 7 7 7 7 8 7 10 8 8 8 9 9 10 10 10 10 10 10 10 10 9 8 7 8 7 7
9 10 9 9 9 8 6 7 8 5 5 6 7 8 9 9 11 11 11 10 10 10 9 8 8 8 7 7 7 7 8 8 9 8 9 8 9 9 10 10 10 11 11 10 9 9 9 9 8
3 6 8 8 9 8 7 6 4 3 5 6 7 8 9 10 10 11 11 10 10 11 11 10 9 9 8 8 8 8 8 9 10 10 9 9 9 10 10 10 11 12 12 11 11 11 12 10 10
Wind_Direction
180 192 204 221 242 240 300 24 48 36 44 45 47 49 59 52 52 78 88 101 113 123 133 136 134 132 130 129 132 139 147 152 153 152 151 151 152 153 153 153 152 151 149 147 145 141 136 131 128
195 203 215 240 243 240 18 32 47 46 54 45 60 64 70 62 71 92 97 112 119 127 138 138 137 135 134 132 133 138 146 152 153 153 155 156 158 160 162 164 165 166 163 159 155 150 145 141 139
233 236 249 251 257 286 37 43 36 53 76 61 74 67 60 66 75 96 117 125 123 129 132 134 141 139 138 136 136 138 143 149 154 156 157 160 163 166 170 173 176 179 180 174 166 162 157 155 152
236 233 239 253 275 21 51 43 21 51 67 51 81 82 73 64 88 111 131 126 121 130 130 137 141 140 141 141 141 143 144 148 154 159 164 167 170 174 179 182 184 187 189 186 181 177 172 168 166
246 258 251 258 270 30 69 56 27 44 63 67 87 95 92 89 102 124 133 123 133 134 130 139 141 142 144 146 149 151 154 157 161 166 172 177 182 186 189 191 193 196 198 197 193 190 183 179 178
255 257 268 280 259 73 56 48 29 45 51 55 94 105 104 116 122 130 128 136 135 129 129 137 142 145 149 154 159 163 166 170 174 178 184 189 196 200 201 202 203 204 205 204 201 198 191 188 187
258 277 285 289 285 200 69 22 27 53 57 30 67 106 119 125 126 127 133 134 131 126 129 142 148 153 159 165 170 174 179 183 188 193 198 202 207 211 213 214 212 211 210 207 206 204 199 195 193
264 282 284 280 280 287 83 47 46 46 65 46 46 95 124 127 129 125 133 126 118 124 133 147 155 156 167 175 182 185 192 196 201 206 211 214 217 220 220 220 216 216 214 211 210 208 203 199 198
262 268 271 278 309 2 46 30 34 51 66 55 47 64 107 122 121 130 129 120 113 120 132 148 149 155 177 182 179 186 198 206 209 215 219 221 225 224 220 223 218 214 215 214 213 212 209 205 205
241 255 264 290 349 336 353 359 341 30 66 54 51 55 94 111 121 136 133 131 132 118 107 96 111 128 155 169 155 185 202 202 210 219 212 214 229 239 236 218 213 214 214 215 216 216 214 211 215
240 253 274 298 321 320 307 4 44 44 55 36 34 59 92 97 94 95 100 113 112 95 69 67 65 65 44 42 106 200 218 197 206 226 229 222 232 244 254 239 208 210 215 218 217 216 218 218 219
246 258 275 289 305 305 292 10 69 59 52 34 37 43 61 63 58 59 62 63 73 71 60 51 49 46 34 20 355 331 342 329 249 219 227 234 238 252 266 239 231 210 213 215 220 211 213 220 220
243 252 267 275 270 258 206 90 84 68 53 45 44 47 53 60 63 59 59 59 57 54 49 45 44 42 30 16 349 346 333 323 317 320 265 257 260 257 259 267 270 256 238 219 222 223 215 215 219
268 256 248 247 242 203 156 105 89 77 72 62 52 51 54 57 59 58 55 56 56 51 44 37 40 38 25 4 343 315 309 314 314 320 324 312 289 276 278 273 270 265 262 257 236 232 230 222 220
257 260 243 220 201 176 145 102 95 98 93 85 74 64 59 58 60 59 58 59 58 54 42 24 39 34 20 3 347 334 328 326 328 334 324 317 307 304 297 284 272 263 261 261 257 247 240 234 226
244 241 233 210 250 193 202 126 116 123 113 101 95 86 76 69 70 70 68 66 64 59 52 37 33 25 13 8 347 335 334 335 335 334 332 336 328 317 307 292 281 272 262 256 253 248 245 240 235
245 262 260 21 300 238 206 126 130 134 125 118 111 104 98 93 86 83 84 79 74 67 55 50 40 24 2 359 348 341 336 332 327 337 352 344 333 322 308 298 291 291 276 259 257 249 239 235 236
2 7 2 276 248 226 136 126 139 144 135 132 131 128 123 113 105 104 100 97 89 79 63 44 40 31 355 359 343 345 342 345 331 355 19 354 338 330 315 298 288 283 282 276 263 261 251 236 233
199 194 197 223 248 206 147 146 151 149 142 137 137 133 126 117 116 115 114 106 100 92 76 55 31 26 355 2 343 332 331 332 313 327 36 8 351 339 326 323 309 284 268 263 256 246 253 244 232
262 252 161 86 341 317 175 157 146 150 146 144 142 139 134 128 128 127 129 118 103 89 54 44 33 15 358 357 322 304 319 315 303 338 359 10 352 336 333 335 321 314 291 284 285 266 259 259 234
330 357 4 213 238 259 224 153 122 132 142 147 141 140 138 141 138 139 133 109 58 52 26 27 29 9 3 345 327 335 328 315 320 334 321 355 336 319 324 323 324 320 309 288 275 259 252 264 272
325 315 296 266 215 253 233 193 173 175 177 162 152 150 146 145 150 151 179 357 337 353 1 22 28 18 1 346 337 331 321 319 325 327 326 329 313 296 291 308 333 330 319 320 304 281 255 247 269
255 236 326 351 343 335 21 359 222 184 181 174 169 159 151 164 179 183 287 307 326 339 339 355 23 19 4 345 330 326 321 326 323 324 315 311 299 281 269 263 318 331 324 340 339 333 306 262 253
306 266 18 36 25 354 329 299 248 210 187 172 166 159 165 181 223 236 284 324 344 336 339 356 9 5 354 339 328 322 322 321 314 304 297 299 298 296 291 269 231 303 327 338 328 323 314 306 288
318 301 317 1 64 244 219 208 226 194 162 154 154 159 169 205 247 286 324 340 344 333 338 349 355 352 344 329 318 318 316 309 298 298 311 321 318 314 316 321 296 279 279 288 292 294 295 302 300
293 304 317 316 299 192 179 196 158 127 114 118 119 114 290 310 348 348 343 350 344 342 349 351 351 339 329 321 315 311 300 301 311 325 326 313 301 299 305 311 307 288 266 263 263 274 276 273 278
331 340 334 318 322 63 154 139 126 137 144 121 32 358 345 360 354 347 352 351 350 353 353 345 340 334 329 321 310 295 306 323 319 312 303 303 308 308 313 319 309 300 287 265 251 251 256 262 258
345 342 351 337 346 347 92 111 127 140 54 19 356 355 4 360 352 354 350 344 347 345 343 343 342 337 326 318 318 320 327 312 305 306 304 300 299 300 300 296 295 292 287 277 257 249 244 241 242
355 8 2 345 0 344 358 81 97 69 31 3 356 4 3 358 352 346 341 343 342 337 338 340 338 330 323 323 324 317 311 311 306 299 298 302 306 307 303 300 296 292 286 279 268 256 248 240 240
6 14 4 354 344 326 336 101 86 58 43 25 5 2 4 357 347 341 339 341 339 335 334 332 331 324 325 327 320 314 313 310 307 306 304 301 296 295 295 293 292 288 285 280 274 265 257 243 236
Height
1499 1500 1501 1505 1502 1499 1489 1469 1460 1461 1461 1463 1463 1463 1467 1472 1479 1492 1493 1492 1492 1494 1497 1501 1504 1507 1510 1513 1515 1518 1520 1523 1525 1527 1529 1531 1533 1534 1536 1537 1539 1540 1542 1543 1544 1545 1547 1548 1549
1498 1500 1504 1502 1497 1497 1486 1466 1463 1462 1463 1464 1463 1465 1470 1478 1483 1489 1492 1494 1494 1495 1498 1501 1504 1507 1510 1513 1515 1518 1520 1523 1525 1527 1529 1531 1533 1534 1536 1538 1539 1541 1542 1543 1545 1546 1547 1548 1550
1499 1502 1502 1492 1483 1482 1476 1464 1463 1460 1463 1463 1464 1469 1475 1483 1487 1490 1493 1495 1496 1497 1499 1502 1505 1508 1511 1513 1515 1518 1520 1523 1525 1527 1529 1531 1533 1534 1536 1538 1539 1541 1542 1544 1545 1547 1548 1549 1550
1500 1501 1497 1488 1478 1465 1463 1462 1462 1461 1464 1463 1464 1473 1482 1486 1489 1492 1494 1497 1498 1499 1501 1504 1506 1509 1511 1513 1516 1518 1520 1523 1525 1527 1529 1531 1532 1534 1536 1537 1539 1540 1542 1544 1545 1546 1548 1549 1550
1502 1497 1488 1479 1470 1459 1457 1461 1462 1462 1464 1465 1468 1477 1485 1489 1491 1493 1496 1498 1499 1501 1502 1505 1508 1510 1512 1514 1516 1519 1521 1523 1525 1527 1529 1530 1532 1533 1535 1537 1538 1540 1541 1543 1544 1546 1547 1549 1550
1500 1489 1485 1476 1465 1458 1457 1460 1462 1463 1466 1468 1471 1477 1487 1491 1493 1495 1498 1500 1502 1503 1504 1507 1509 1512 1514 1516 1518 1519 1521 1523 1525 1527 1528 1530 1531 1533 1534 1535 1537 1539 1540 1542 1543 1545 1546 1547 1549
1498 1487 1482 1471 1461 1458 1459 1462 1463 1466 1471 1473 1474 1479 1488 1491 1494 1497 1499 1502 1504 1504 1505 1509 1511 1513 1515 1517 1518 1520 1522 1523 1525 1526 1528 1529 1530 1531 1533 1534 1535 1537 1539 1540 1542 1543 1544 1546 1547
1495 1488 1481 1470 1462 1459 1458 1463 1467 1470 1474 1477 1477 1481 1488 1493 1495 1498 1501 1504 1506 1507 1508 1510 1512 1514 1516 1517 1519 1521 1522 1523 1525 1526 1527 1528 1529 1530 1531 1532 1534 1535 1537 1538 1539 1541 1542 1543 1545
1493 1491 1485 1470 1462 1460 1461 1466 1471 1474 1478 1482 1485 1486 1490 1495 1497 1499 1502 1505 1508 1510 1511 1513 1514 1515 1517 1518 1519 1521 1522 1523 1524 1525 1526 1526 1527 1528 1529 1530 1531 1532 1534 1535 1536 1538 1539 1540 1542
1489 1488 1477 1463 1462 1464 1465 1470 1474 1477 1481 1487 1491 1492 1494 1497 1499 1501 1504 1507 1510 1513 1514 1515 1516 1517 1519 1520 1520 1521 1521 1522 1522 1523 1524 1524 1525 1526 1528 1528 1529 1530 1531 1532 1533 1534 1535 1537 1538
1482 1481 1471 1465 1465 1468 1470 1473 1477 1480 1489 1494 1495 1495 1496 1498 1500 1502 1504 1507 1510 1512 1514 1515 1516 1517 1519 1520 1521 1521 1521 1521 1521 1522 1523 1523 1523 1524 1525 1526 1525 1525 1526 1527 1528 1529 1530 1532 1533
1477 1475 1471 1469 1469 1471 1474 1476 1483 1489 1497 1499 1498 1497 1497 1500 1501 1503 1505 1507 1509 1511 1513 1514 1516 1517 1518 1519 1520 1520 1521 1521 1521 1520 1520 1520 1520 1520 1521 1522 1522 1521 1521 1521 1523 1523 1524 1526 1528
1472 1472 1471 1470 1471 1473 1476 1480 1487 1496 1500 1501 1501 1501 1501 1502 1503 1505 1505 1507 1509 1511 1513 1514 1515 1516 1517 1518 1518 1518 1518 1519 1519 1518 1517 1517 1516 1515 1516 1516 1517 1517 1516 1516 1517 1518 1519 1520 1522
1469 1468 1468 1469 1470 1473 1476 1482 1490 1499 1502 1504 1505 1506 1506 1506 1507 1507 1508 1509 1510 1512 1514 1515 1516 1516 1516 1517 1516 1516 1516 1516 1516 1515 1514 1513 1512 1511 1511 1510 1510 1510 1510 1510 1511 1511 1513 1514 1516
1471 1469 1468 1468 1470 1474 1478 1488 1495 1502 1504 1506 1508 1509 1509 1509 1510 1510 1511 1512 1513 1514 1515 1516 1517 1516 1516 1516 1515 1515 1515 1514 1513 1512 1510 1509 1508 1506 1505 1504 1503 1503 1503 1504 1504 1505 1507 1508 1510
1468 1470 1473 1471 1472 1473 1478 1496 1499 1502 1505 1507 1509 1511 1511 1512 1512 1513 1513 1514 1515 1516 1516 1516 1517 1516 1516 1515 1514 1514 1513 1511 1510 1509 1507 1505 1504 1502 1501 1499 1497 1497 1496 1496 1496 1497 1499 1501 1503
1470 1479 1484 1485 1480 1478 1479 1495 1499 1502 1504 1508 1510 1512 1513 1514 1515 1515 1516 1516 1516 1516 1517 1517 1516 1516 1515 1515 1514 1513 1512 1510 1508 1506 1504 1502 1500 1498 1496 1494 1492 1491 1490 1489 1490 1491 1493 1495 1497
1488 1496 1502 1505 1486 1480 1484 1493 1498 1501 1503 1507 1510 1512 1513 1515 1516 1517 1517 1517 1518 1518 1517 1517 1517 1516 1515 1514 1513 1511 1510 1508 1506 1504 1501 1499 1497 1495 1493 1491 1489 1487 1485 1484 1484 1485 1487 1489 1491
1474 1484 1499 1498 1484 1483 1483 1491 1495 1499 1502 1505 1509 1511 1513 1515 1517 1518 1518 1519 1519 1518 1518 1517 1516 1515 1514 1512 1510 1509 1507 1506 1504 1502 1499 1497 1495 1493 1490 1488 1486 1484 1483 1482 1482 1482 1483 1485 1487
1467 1476 1485 1489 1482 1481 1484 1488 1491 1497 1500 1503 1507 1510 1512 1515 1517 1518 1519 1519 1519 1519 1518 1517 1515 1514 1512 1510 1509 1507 1505 1503 1502 1500 1497 1494 1492 1490 1488 1486 1483 1482 1480 1480 1480 1479 1480 1482 1484
1470 1478 1483 1488 1485 1482 1486 1494 1495 1497 1501 1503 1506 1508 1511 1513 1515 1517 1518 1519 1519 1518 1517 1516 1513 1511 1510 1508 1506 1504 1502 1500 1499 1497 1495 1492 1490 1488 1486 1483 1481 1479 1478 1478 1477 1478 1478 1479 1480
1481 1474 1476 1484 1494 1494 1493 1512 1506 1502 1503 1503 1505 1508 1510 1512 1514 1516 1517 1517 1517 1517 1516 1514 1512 1509 1507 1505 1503 1501 1499 1497 1495 1493 1491 1489 1487 1485 1483 1481 1479 1478 1476 1475 1475 1475 1476 1477 1477
1473 1469 1477 1486 1494 1501 1511 1524 1514 1504 1504 1502 1504 1506 1508 1511 1512 1514 1515 1515 1515 1515 1514 1512 1510 1507 1505 1503 1501 1499 1496 1494 1491 1489 1486 1485 1483 1482 1480 1478 1477 1475 1474 1473 1473 1473 1473 1474 1474
1463 1469 1478 1491 1505 1525 1527 1534 1524 1507 1501 1499 1501 1504 1507 1509 1511 1512 1513 1513 1513 1512 1511 1509 1507 1505 1502 1500 1498 1496 1493 1490 1487 1484 1482 1480 1479 1478 1477 1475 1473 1472 1472 1471 1470 1470 1470 1470 1471
1468 1476 1494 1515 1533 1533 1518 1528 1517 1498 1496 1497 1499 1502 1505 1507 1508 1509 1510 1510 1510 1509 1508 1506 1504 1501 1499 1497 1495 1492 1489 1486 1483 1481 1479 1477 1475 1474 1473 1472 1470 1469 1468 1468 1467 1467 1466 1466 1467
1471 1473 1491 1504 1505 1510 1515 1518 1507 1495 1497 1498 1499 1501 1503 1504 1505 1507 1508 1508 1507 1506 1505 1503 1500 1498 1496 1494 1491 1488 1485 1482 1480 1477 1475 1472 1471 1470 1469 1467 1466 1465 1464 1464 1463 1463 1463 1463 1463
1471 1471 1465 1475 1476 1493 1505 1504 1501 1495 1496 1497 1497 1499 1501 1502 1504 1506 1506 1506 1505 1503 1501 1500 1497 1495 1492 1490 1487 1484 1481 1478 1475 1472 1470 1468 1466 1464 1463 1461 1460 1459 1459 1459 1458 1458 1458 1459 1458
1468 1468 1473 1481 1493 1496 1494 1501 1506 1498 1496 1496 1496 1498 1500 1502 1504 1504 1504 1504 1502 1501 1499 1496 1494 1491 1489 1486 1483 1480 1477 1473 1470 1467 1465 1462 1460 1458 1456 1455 1454 1453 1453 1453 1453 1453 1453 1453 1453
1475 1476 1479 1479 1482 1497 1499 1506 1492 1494 1495 1495 1496 1498 1500 1502 1503 1503 1503 1501 1500 1498 1496 1493 1491 1488 1485 1482 1478 1475 1472 1469 1465 1463 1460 1457 1455 1452 1450 1449 1447 1446 1446 1446 1446 1446 1447 1447 1448
1474 1479 1482 1496 1496 1487 1490 1505 1488 1490 1492 1494 1497 1499 1501 1502 1502 1502 1501 1499 1497 1495 1493 1490 1487 1484 1481 1478 1474 1471 1467 1464 1461 1458 1455 1452 1449 1447 1444 1442 1440 1439 1439 1439 1439 1439 1440 1441 1442